Home > Weather > Finse > Past weeks

Flag for Norway Past Weather in Finse, Norway — Yesterday and Last 2 Weeks

Now
43 °F

Quite cool.


Feels Like: 43 °F
Forecast: 39 / 49 °F
Wind: 2 mph from South

Location: Finsevatn

Current Time: Jun 27, 2016 at 7:57:06 AM

Latest Report: Jun 27, 2016 at 7:00 AM


Visibility: N/A

Pressure: 29.69 "Hg (25.57 "Hg at 1221m altitude)

Humidity: 88%

Dew Point: 40 °F

Location of FinseLocation

Past Weather in Finse — Graph

°F

Finse Temperature Yesterday

Maximum temperature yesterday: 52 °F (at 5:00 PM)
Minimum temperature yesterday: 37 °F (at 3:00 AM)
Average temperature yesterday: 46 °F

High & Low Weather Summary for the Past Weeks

 TemperatureHumidityPressure
High58 °F (Jun 23, 4:00 PM)97% (Jun 16, 3:00 AM)30.15 "Hg (Jun 16, 3:00 AM)
Low29 °F (Jun 20, 4:00 AM)39% (Jun 12, 5:00 PM)29.53 "Hg (Jun 14, 6:00 PM)
Average44 °F81%29.84 "Hg
* Reported Jun 12 6:00 AM — Jun 27 6:00 AM, Finse, Weather by CustomWeather, © 2016

Note: Actual official high and low records may vary slightly from our data, if they occured in-between our weather recording intervals... More about our weather records

Advertising

Finse Weather History for the Previous 24 Hours

Scroll right to see more
 ConditionsComfort  
Time TempWeatherWind HumidityBarometerVisibility
6:00 AM
Mon, Jun 27
44 °FQuite cool.3 mph86%29.69 "HgN/A
5:00 AM44 °FQuite cool.2 mph86%29.69 "HgN/A
4:00 AM43 °FQuite cool.1 mph87%29.71 "HgN/A
3:00 AM45 °FCool.5 mph93%29.68 "HgN/A
2:00 AM45 °FQuite cool.3 mph95%29.70 "HgN/A
1:00 AM45 °FCool.3 mph92%29.70 "HgN/A
12:00 AM51 °FCool.5 mph87%29.65 "HgN/A
11:00 PM
Sun, Jun 26
48 °FCool.5 mph94%29.67 "HgN/A
10:00 PM48 °FCool.1 mph97%29.68 "HgN/A
9:00 PM47 °FCool.2 mph97%29.68 "HgN/A
8:00 PM45 °FCool.2 mph97%29.70 "HgN/A
7:00 PM49 °FCool.2 mph97%29.68 "HgN/A
6:00 PM51 °FCool.3 mph96%29.67 "HgN/A
5:00 PM52 °FCool.5 mph96%29.68 "HgN/A
4:00 PM51 °FCool.7 mph93%29.70 "HgN/A
3:00 PM51 °FCool.6 mph93%29.71 "HgN/A
2:00 PM51 °FCool.6 mph91%29.74 "HgN/A
1:00 PM50 °FCool.7 mph91%29.76 "HgN/A
12:00 PM49 °FCool.1 mph91%29.80 "HgN/A
11:00 AM51 °FCool.5 mph84%29.80 "HgN/A
10:00 AM50 °FCool.2 mph83%29.83 "HgN/A
9:00 AM50 °FCool.1 mph84%29.83 "HgN/A
8:00 AM44 °FQuite cool.1 mph92%29.92 "HgN/A
7:00 AM44 °FQuite cool.1 mph92%29.92 "HgN/A
Weather by CustomWeather, © 2016

See weather overviewHow to use our weather pages